Location: Hanover
(52.3667°N, 9.7167°E)
Time: 05:19:25
(UTC+02:00)

Envisat - Pass Details

Date: 25 September 2024
Orbit: 762 x 764 km, 98.3° (Epoch: 04 October)

Event Time Altitude Azimuth Distance (km) Brightness Sun altitude
Rises 06:25:51 0° 6° (N) 3,240 6.4 -8.0°
Reaches altitude 10° 06:28:46 10° 349° (NNW) 2,309 5.5 -7.5°
Maximum altitude 06:32:11 19° 306° (NW) 1,787 4.5 -7.0°
Drops below altitude 10° 06:35:35 10° 264° (W) 2,300 4.8 -6.5°
Enters shadow 06:36:19 - 258° (WSW) 2,504 5.0 -6.4°
